Home > Time Zones > World Clock > Weather > Iran > Tabriz > Past weeks

Flag for Iran Weather past 2 weeks in Tabriz, Iran

Now
88 °F

Passing clouds.


Feels Like: 84 °F
Forecast: 66 / 92 °F
Wind: 16 mph from Southeast

Location: Tabriz Airport

Current Time: Jul 30, 2014 at 4:08:28 PM

Latest Report: Jul 30, 2014 at 3:30 PM


Visibility: N/A

Pressure: 29.95 "Hg

Humidity: 21%

Dew point: 43 °F

Location of TabrizLocation

Historic Weather in Tabriz — Graph

°F

Tabriz temperature yesterday

Maximum temperature yesterday: 84 °F (at 3:00 PM)
Minimum temperature yesterday: 63 °F (at 6:30 AM)
Average temperature yesterday: 75 °F

Past Weeks' High & Low Weather Summary

 TemperatureHumidityPressure
High102 °F (Jul 17, 3:30 PM)54% (Jul 18, 7:30 AM)30.04 "Hg (Jul 18, 7:30 AM)
Low63 °F (Jul 29, 6:30 AM)7% (Jul 19, 7:30 PM)29.71 "Hg (Jul 20, 5:30 PM)
Average84 °F26%29.90 "Hg
* Reported Jul 15 3:00 PM — Jul 30 3:00 PM, Tabriz, Weather by CustomWeather, © 2014

Note: Actual official high and low records may vary slightly from our data, if they occured in-between our weather recording intervals... More about our weather records

Advertising

Tabriz weather history for previous 24 hours

 ConditionsComfort  
Time TempWeatherWind HumidityBarometerVisibility
3:00 PM
Jul 30
86 °FPassing clouds.16 mph22%29.95 "HgN/A
2:30 PM86 °FPassing clouds.18 mph24%29.95 "HgN/A
2:00 PM84 °FSunny.21 mph25%29.95 "Hg10 mi
1:30 PM82 °FSunny.14 mph28%29.98 "Hg10 mi
1:00 PM81 °FSunny.18 mph30%29.98 "Hg10 mi
12:30 PM81 °FSunny.21 mph30%29.98 "Hg10 mi
12:00 PM79 °FSunny.21 mph32%30.01 "Hg10 mi
11:30 AM79 °FSunny.18 mph30%30.01 "Hg10 mi
11:00 AM77 °FSunny.16 mph30%30.01 "Hg10 mi
10:30 AM75 °FSunny.16 mph29%30.01 "Hg10 mi
10:00 AM73 °FSunny.16 mph31%30.01 "Hg10 mi
9:30 AM72 °FSunny.21 mph31%30.01 "Hg10 mi
8:50 AM72 °FSunny.18 mph31%30.01 "Hg10 mi
8:30 AM70 °FSunny.14 mph33%30.01 "Hg10 mi
8:00 AM68 °FSunny.16 mph35%30.01 "Hg10 mi
7:30 AM66 °FClear.16 mph35%30.01 "Hg10 mi
6:30 AM66 °FClear.14 mph37%29.98 "Hg10 mi
5:30 AM64 °FClear.18 mph40%29.98 "Hg10 mi
4:30 AM64 °FClear.21 mph40%30.01 "Hg10 mi
3:30 AM66 °FClear.16 mph37%30.01 "Hg10 mi
2:30 AM66 °FClear.14 mph40%30.01 "Hg10 mi
1:30 AM68 °FClear.21 mph38%30.01 "Hg10 mi
12:30 AM68 °FClear.12 mph40%30.01 "Hg10 mi
11:30 PM
Jul 29
70 °FClear.21 mph38%30.01 "Hg10 mi
10:30 PM72 °FClear.18 mph36%29.98 "Hg10 mi
9:30 PM75 °FSunny.21 mph31%29.98 "Hg10 mi
8:30 PM77 °FSunny.22 mph30%29.95 "Hg10 mi
7:30 PM81 °FPassing clouds.25 mph24%29.95 "HgN/A
7:00 PM82 °FPassing clouds.24 mph21%29.95 "HgN/A
6:30 PM82 °FPassing clouds.16 mph21%29.95 "HgN/A
6:00 PM84 °FPassing clouds.21 mph19%29.95 "HgN/A
5:30 PM84 °FPassing clouds.22 mph19%29.95 "HgN/A
5:00 PM84 °FPassing clouds.21 mph20%29.95 "HgN/A
4:30 PM84 °FPassing clouds.16 mph20%29.95 "HgN/A
4:00 PM84 °FPassing clouds.18 mph25%29.95 "HgN/A
Weather by CustomWeather, © 2014

See weather overviewHow to use our weather pages